Regional Weather Roundup
Issued by NWS Newport/Morehead, NC

Home | Current Version | Previous Version | Text Only | Print | Product List | Glossary On
Versions: 1 2 3 4 5 6 7 8 9 10 11 12 13 14 15 16 17 18 19 20 21 22 23 24 25 26 27 28 29 30 31 32 33 34 35 36 37 38 39 40 41 42 43 44 45 46 47 48 49 50
000
ASUS42 KMHX 310022
RWRMHX
WEATHER ROUNDUP FOR EASTERN NORTH CAROLINA
NATIONAL WEATHER SERVICE NEWPORT/MOREHEAD CITY NC
800 PM EDT SAT AUG 30 2014

NOTE: "FAIR" INDICATES FEW OR NO CLOUDS BELOW 12,000 FEET
WITH NO SIGNIFICANT WEATHER AND/OR OBSTRUCTIONS TO VISIBILITY

NCZ015>017-031-032-045>047-102-103-310100-
NORTH COAST

CITY           SKY/WX    TMP DP  RH WIND       PRES   REMARKS
EDENTON        PTCLDY    78  74  86 SE5       30.15R
ELIZABETH CITY CLEAR     79  73  82 SE3       30.14S
KITTY HAWK     PTCLDY    78  75  90 SE3       30.15R
MANTEO         PTCLDY    78  74  87 SE5       30.16R

$$

NCZ045>047-081-094-103-104-310100-
CENTRAL COAST

CITY           SKY/WX    TMP DP  RH WIND       PRES   REMARKS
FRISCO         NOT AVBL
SWANQUARTER      N/A     81 N/A N/A S8        30.12S

$$

NCZ095-097-098-100-101-310100-
SOUTHERN COAST

CITY           SKY/WX    TMP DP  RH WIND       PRES   REMARKS
BEAUFORT       CLEAR     81  74  79 SE6       30.15S
CEDAR ISLAND     N/A     81 N/A N/A S5        30.18S
JACKSONVILLE   CLEAR     79  74  84 SE6       30.14S
NEWPORT        NOT AVBL
PINEY ISLAND   CLEAR     81  76  84 S6        30.15R
WILMINGTON     CLEAR     79  71  76 S3        30.13S


$$

NCZ011>013-027>030-043-044-078>080-089-090>093-098-310100-
COASTAL PLAIN

CITY           SKY/WX    TMP DP  RH WIND       PRES   REMARKS
AHOSKIE        CLEAR     76  73  88 CALM      30.14S
CLINTON        CLEAR     81  75  83 CALM      30.13S
ELIZABETHTOWN  CLOUDY    79  74  84 SE5       30.14R
GOLDSBORO      PTCLDY    81  77  88 SE6       30.11S
GREENVILLE     CLEAR     81  72  74 SW5       30.15R
HAVELOCK       CLEAR     79  73  82 S5        30.16R
KENANSVILLE    CLEAR     79  71  78 CALM      30.14S
KINSTON        CLEAR     81  73  78 SE5       30.14S
NEW BERN       CLEAR     81  72  74 S5        30.15R
RICHLANDS      CLEAR     79  70  73 S3        30.14S
ROANOKE RAPIDS NOT AVBL
ROCKY MOUNT    CLEAR     80  72  76 CALM      30.13R
WASHINGTON     CLEAR     80  73  79 SE5       30.14S
WHITEVILLE     CLEAR     80  73  77 SE3       30.13S

$$

AMZ130-135-150-152-154-156-158-170-250-252-270-ANZ085-086-088-633-658-670-310100-
MARINE OBSERVATIONS

STATION/POSITION TIME  TEMP    WIND        PRES    WAVE   SWELL
                       AIR SEA DIR/SP/G            HT/PER HT/PER
                 (UTC) (F)     (DEG/KT/KT) (MB)    (FT/S) (FT/S)
CHESAPEAKE LIGHT 0000   76     140/ 15/ 15 1021.6
BUOY 44014       0000   78 78  120/  8/ 10 1021.2    2/ 8   2/ 8
DUCK             0000   79 79  140/ 11/ 12 1020.2
2E DUCK          0000                        N/A     2/ 8
OREGON INLET     0000   78 79  130/  6/  8 1021.0
BUOY 44095       0000      77                N/A     2/ 8
20E OREGON INLET NOT AVBL
HATTERAS CG      0000   81 82  160/  7/ 10 1021.6
DIAMOND BUOY     0000   80     100/ 10/ 12 1021.2    3/ 8   3/ 8
CAPE LOOKOUT     0000   81     150/  8/ 10 1020.8
BEAUFORT LAB     0000   80 83  150/  7/  9 1020.3
30 SE NEW RIVER  0000   82 83  150/  8/ 10 1021.0    3/ 8   2/ 8
5 SE WRIGHTSVILL 0000   78 82  160/  8/ 10   N/A
BUOY 41002       NOT AVBL
BUOY 41004       0000   83 84  100/ 10/ 12 1019.1    2/ 8   2/ 8

$$


USA.gov is the U.S. government's official web portal to all federal, state and local government web resources and services.